Location: *
(55.5817°S, 142.4781°W)
Time: 07:44:40
(UTC+00:00)

Cosmos 1933 Rocket - Pass Details

Date: 29 April 2025
Orbit: 602 x 623 km, 82.5° (Epoch: 23 May)

Event Time Altitude Azimuth Distance (km) Brightness Sun altitude
Rises 15:09:35 0° 331° (NNW) 2,915 6.8 -14.5°
Reaches altitude 10° 15:11:54 10° 325° (NW) 2,015 5.9 -14.2°
Maximum altitude 15:16:11 45° 251° (WSW) 872 3.9 -13.6°
Drops below altitude 10° 15:20:32 10° 177° (S) 2,031 6.2 -13.0°
Sets 15:22:52 0° 171° (S) 2,942 7.1 -12.7°
